Regional Weather Roundup
Issued by NWS Mobile, AL

Home | Current Version | Previous Version | Text Only | Print | Product List | Glossary On
Versions: 1 2 3 4 5 6 7 8 9 10 11 12 13 14 15 16 17 18 19 20 21 22 23 24 25 26 27 28 29 30 31 32 33 34 35 36 37 38 39 40 41 42 43 44 45 46 47 48 49 50
265
ASUS44 KMOB 180512
RWRMOB
REGIONAL WEATHER ROUNDUP
NATIONAL WEATHER SERVICE MOBILE AL
1100 PM CST TUE JAN 17 2017

NOTE: "FAIR" INDICATES FEW OR NO CLOUDS BELOW 12,000 FEET WITH NO
      SIGNIFICANT WEATHER AND/OR OBSTRUCTIONS TO VISIBILITY.

  * THESE STATIONS ARE PART OF THE UNIVERSITY OF SOUTH ALABAMA
    MESONET AND ARE NOT UNDER NWS OR FAA QUALITY CONTROL.

ALZ061>064-180600-
COASTAL ALABAMA

CITY           SKY/WX    TMP DP  RH WIND       PRES   REMARKS
MOBILE REG APT CLOUDY    69  67  93 S7        30.18F FOG
BROOKLEY FIELD FOG       68  68 100 S5        30.19F VSB 1/4
USA CAMPUS*      N/A     68  66  94 CALM      30.18S
DOG RIVER*       N/A     66  66 100 S2        30.99S


CITY           SKY/WX    TMP DP  RH WIND       PRES   REMARKS
GULF SHORES    FOG       66  66 100 E6        30.19S VSB 1/4

$$

ALZ051>060-180600-
INTERIOR SOUTHWEST AND SOUTH CENTRAL ALABAMA

CITY           SKY/WX    TMP DP  RH WIND       PRES   REMARKS
GREENVILLE     CLOUDY    67  63  87 MISG      30.17
EVERGREEN      CLOUDY    66  64  93 S5        30.18F FOG
ATMORE*          N/A    N/A N/A N/A S6        30.20F
ANDALUSIA/OPP  NOT AVBL
ANDALUSIA*       N/A     63  63 100 S3        30.18F
FLORALA APT    FOG       64  62  93 S6        30.21S VSB 1/4
FLORALA*         N/A     63  63 100 CALM      30.96F

$$

FLZ001>006-180600-
WESTERN FLORIDA PANHANDLE

CITY           SKY/WX    TMP DP  RH WIND       PRES   REMARKS
PENSACOLA      FOG       66  64  93 CALM      30.18F VSB 1/4
NAS PENSACOLA  FOG       66  65  96 CALM      30.18F VSB 1/4
MILTON           N/A     64  64 100 MISG      30.18F
WHTNG S FIELD  FOG       67  66  97 CALM      30.19F VSB 1/2


CITY           SKY/WX    TMP DP  RH WIND       PRES   REMARKS
JAY*             N/A     64  64 100 S3        30.19F
DUKE FIELD     MOCLDY    61  61  99 S5        30.18F FOG
CRESTVIEW      FOG       59  58  96 CALM      30.21S VSB 1/4
VALPARAISO     MOCLDY    63  63  98 CALM      30.19S
DESTIN         CLOUDY    69  68  96 SE5       30.19S

$$

MSZ076-079-180600-
INTERIOR SOUTHEAST MISSISSIPPI

CITY           SKY/WX    TMP DP  RH WIND       PRES   REMARKS
LEAKESVILLE*   NOT AVBL
AGRICOLA*      NOT AVBL

$$

MARINE OBSERVATIONS

STATION/POSITION TIME  TEMP    WIND        PRES    WAVE
                       AIR SEA DIR/SP/G            HT/PER
                 (UTC) (F)     (DEG/KT/KT) (MB)    (FT/S)
PASCAGOULA       0442   65     160/  5/  5 1021.6F
PETIT BOIS ISLND 0442   64     150/  7/  9 1022.4F
GRAND BAY        0345   66     150/  7     1023.0S
KATRINA CUT      0430          150/  7     1022.0R
CEDAR POINT      0430   66     150/  6     1022.0S
E DAUPHIN ISLAND 0400   66     130/  4/  4 1021.8R
MIDDLE BAY LIGHT 0430   65     110/  6     1021.7F
USCG MOBILE BAY  0442   67 62  190/  2/  5 1022.7F
STATE DOCKS      0442   67 59              1021.9F
MEAHER PARK      0430   68     140/  5     1022.4R
WEEKS BAY        0345   68                   N/A
FORT MORGAN      0442   67     170/ 11/ 11   N/A
12 S ORANGE BCH  0450   68 64  130/  4/  4 1022.0F   3/ 6
PENSACOLA BAY    0448           CALM  /  1   N/A
67 S FORT MORGAN 0430   71                 1022.0S

$$

SELECTED LOCATIONS ACROSS THE REGION

CITY           SKY/WX    TMP DP  RH WIND       PRES   REMARKS
NEW ORLEANS    PTCLDY    67  67 100 SE5       30.14F
GULFPORT       FOG       68  68 100 S7        30.16S VSB 1/2
PASCAGOULA AP  FOG       67  65  93 SE5       30.17F VSB 1/4
PASCAGOULA*    NOT AVBL
HATTIESBURG    CLOUDY    66  65  96 S6        30.17S
LAUREL         PTCLDY    61  57  88 CALM      30.17F
MERIDIAN       CLOUDY    62  61  96 S3        30.15F
JACKSON        CLOUDY    62  59  90 CALM      30.14F
MONTGOMERY     CLOUDY    64  57  78 S5        30.17F
TROY           CLOUDY    61  60  97 CALM      30.19F
ASHFORD*         N/A     63  63 100 S3        30.18F
DOTHAN         MOCLDY    63  63 100 S7        30.23R
PANAMA CITY    FOG       62  61  96 CALM      30.19S VSB 1/2

$$





USA.gov is the U.S. government's official web portal to all federal, state and local government web resources and services.